Hourly Data Report for October 14, 2019

All times are specified in Local Standard Time (LST). Add 1 hour to adjust for Daylight Saving Time where and when it is observed.

WOODSTOCK NEWBRIDGE
NEW BRUNSWICK
Current Station Operator: ECCC - MSC

46°09'08.000" N
67°32'34.000" W
154.00 m
8105603
71606
EWD

Download Data

Hourly Data (October 2019)
Hourly Data Report for October 14, 2019
TIME Temp Definition
°C
Dew Point Definition
°C
Rel Hum Definition
%
Wind Dir Definition
10's deg

Wind Spd Definition
km/h
Visibility Definition
km
Stn Press Definition
kPa
Hmdx Definition


Wind Chill Definition


Weather Definition


00:00 4.0 3.3 95   0   99.93     LegendNANA
01:00 3.4 2.9 97 0 1   99.97     LegendNANA
02:00 3.6 3.4 99   0   99.93     LegendNANA
03:00 4.3 4.1 99   0   99.94     LegendNANA
04:00 4.0 3.8 99 0 1   99.96     LegendNANA
05:00 4.8 4.7 99 14 1   99.98     LegendNANA
06:00 4.1 4.0 99   0   99.92     LegendNANA
07:00 4.4 4.3 99 14 2   100.00     LegendNANA
08:00 5.5 5.4 99 11 5   100.01     LegendNANA
09:00 8.0 7.8 99 12 7   100.01     LegendNANA
10:00 10.1 9.9 98 11 7   100.02     LegendNANA
11:00 13.5 9.9 79 14 10   99.94     LegendNANA
12:00 15.5 10.0 70 14 14   99.88     LegendNANA
13:00 15.8 9.5 66 12 11   99.81     LegendNANA
14:00 16.1 8.8 62 15 13   99.73     LegendNANA
15:00 16.3 8.4 59 16 10   99.70     LegendNANA
16:00 16.4 8.4 59 15 11   99.65     LegendNANA
17:00 15.1 10.0 71 13 11   99.62     LegendNANA
18:00 14.1 10.4 78 12 10   99.65     LegendNANA
19:00 12.9 10.3 84 12 8   99.67     LegendNANA
20:00 12.5 10.4 87 11 10   99.65     LegendNANA
21:00 12.5 10.3 86 13 11   99.68     LegendNANA
22:00 12.1 10.0 87 15 9   99.69     LegendNANA
23:00 11.8 9.9 88 17 9   99.69     LegendNANA

Notes on Data Quality.

Legend

  • E = Estimated
  • M = Missing
  • NA = Not Available
Date modified: